• In Belarus
  • List of Countries
  • For 7 days
  • Water Temperature
  • Weather Map
  • Weather Widgets
  • user-avatar
    Login

    Hourly Weather Giumri

    Today, 18 August, Sunday

    Time Temperature Precipitation Wind Pressure Humidity
    00:00 +19°C° 0 mm 4 mps 634 mmHg 72%
    01:00 +18°C° 0 mm 4 mps 634 mmHg 72%
    02:00 +18°C° 0 mm 3 mps 633 mmHg 72%
    03:00 +17°C° 0 mm 3 mps 633 mmHg 73%
    04:00 +17°C° 0 mm 3 mps 633 mmHg 70%
    05:00 +17°C° 0 mm 3 mps 633 mmHg 68%
    06:00 +17°C° 0 mm 3 mps 633 mmHg 65%
    07:00 +19°C° 0 mm 3 mps 634 mmHg 60%
    08:00 +21°C° 0 mm 4 mps 634 mmHg 55%
    09:00 +23°C° 0 mm 4 mps 635 mmHg 51%
    10:00 +26°C° 0 mm 4 mps 635 mmHg 47%
    11:00 +27°C° 0 mm 5 mps 635 mmHg 44%
    12:00 +29°C° 0 mm 5 mps 636 mmHg 40%
    13:00 +29°C° 0 mm 5 mps 635 mmHg 41%
    14:00 +29°C° 0 mm 6 mps 635 mmHg 42%
    15:00 +29°C° 0 mm 6 mps 635 mmHg 42%
    16:00 +28°C° 0 mm 6 mps 635 mmHg 45%
    17:00 +27°C° 0 mm 5 mps 635 mmHg 48%
    18:00 +25°C° 0 mm 5 mps 635 mmHg 51%
    19:00 +23°C° 0 mm 5 mps 635 mmHg 52%
    20:00 +21°C° 0 mm 4 mps 635 mmHg 52%
    21:00 +20°C° 0 mm 4 mps 636 mmHg 53%
    22:00 +19°C° 0 mm 4 mps 635 mmHg 52%
    23:00 +19°C° 0 mm 4 mps 635 mmHg 51%

    Tomorrow, 19 August, Monday

    Time Temperature Precipitation Wind Pressure Humidity
    00:00 +18°C° 0 mm 3 mps 635 mmHg 50%
    01:00 +18°C° 0 mm 3 mps 635 mmHg 50%
    02:00 +17°C° 0 mm 3 mps 635 mmHg 50%
    03:00 +17°C° 0 mm 2 mps 635 mmHg 49%
    04:00 +17°C° 0 mm 2 mps 635 mmHg 49%
    05:00 +17°C° 0 mm 2 mps 636 mmHg 49%
    06:00 +17°C° 0 mm 2 mps 636 mmHg 49%
    07:00 +20°C° 0 mm 2 mps 637 mmHg 44%
    08:00 +24°C° 0 mm 2 mps 638 mmHg 39%
    09:00 +26°C° 0 mm 2 mps 638 mmHg 34%
    10:00 +28°C° 0 mm 3 mps 639 mmHg 32%
    11:00 +29°C° 0 mm 3 mps 639 mmHg 30%
    12:00 +32°C° 0 mm 4 mps 639 mmHg 28%
    13:00 +32°C° 0 mm 4 mps 639 mmHg 29%
    14:00 +32°C° 0 mm 4 mps 639 mmHg 30%
    15:00 +33°C° 0 mm 5 mps 639 mmHg 31%
    16:00 +30°C° 0 mm 5 mps 638 mmHg 35%
    17:00 +28°C° 0 mm 5 mps 638 mmHg 39%
    18:00 +26°C° 0 mm 4 mps 638 mmHg 43%
    19:00 +25°C° 0 mm 4 mps 638 mmHg 41%
    20:00 +22°C° 0 mm 4 mps 638 mmHg 40%
    21:00 +20°C° 0 mm 3 mps 638 mmHg 39%
    22:00 +20°C° 0 mm 3 mps 638 mmHg 38%
    23:00 +19°C° 0 mm 3 mps 638 mmHg 38%

    Day after tomorrow, 20 August, Tuesday

    Time Temperature Precipitation Wind Pressure Humidity
    00:00 +18°C° 0 mm 3 mps 638 mmHg 37%
    01:00 +18°C° 0 mm 3 mps 638 mmHg 37%
    02:00 +18°C° 0 mm 3 mps 638 mmHg 36%
    03:00 +17°C° 0 mm 3 mps 638 mmHg 36%
    04:00 +17°C° 0 mm 3 mps 638 mmHg 37%
    05:00 +17°C° 0 mm 2 mps 638 mmHg 39%
    06:00 +17°C° 0 mm 2 mps 638 mmHg 40%
    07:00 +20°C° 0 mm 2 mps 639 mmHg 36%
    08:00 +24°C° 0 mm 2 mps 640 mmHg 32%
    09:00 +26°C° 0 mm 3 mps 640 mmHg 29%
    10:00 +28°C° 0 mm 3 mps 640 mmHg 27%
    11:00 +29°C° 0 mm 3 mps 641 mmHg 26%
    12:00 +31°C° 0 mm 3 mps 641 mmHg 25%
    13:00 +32°C° 0 mm 4 mps 640 mmHg 25%
    14:00 +32°C° 0 mm 4 mps 640 mmHg 26%
    15:00 +33°C° 0 mm 4 mps 640 mmHg 27%
    16:00 +30°C° 0 mm 4 mps 639 mmHg 30%
    17:00 +28°C° 0 mm 4 mps 639 mmHg 34%
    18:00 +26°C° 0 mm 4 mps 638 mmHg 38%
    19:00 +25°C° 0 mm 4 mps 638 mmHg 37%
    20:00 +22°C° 0 mm 4 mps 638 mmHg 36%
    21:00 +20°C° 0 mm 3 mps 638 mmHg 35%
    22:00 +19°C° 0 mm 3 mps 638 mmHg 35%
    23:00 +19°C° 0 mm 3 mps 638 mmHg 35%

    21 August, Wednesday

    Time Temperature Precipitation Wind Pressure Humidity
    00:00 +18°C° 0 mm 3 mps 638 mmHg 34%
    01:00 +18°C° 0 mm 2 mps 637 mmHg 35%
    02:00 +17°C° 0 mm 2 mps 637 mmHg 35%
    03:00 +17°C° 0 mm 2 mps 637 mmHg 35%
    04:00 +17°C° 0 mm 2 mps 637 mmHg 36%
    05:00 +17°C° 0 mm 2 mps 637 mmHg 37%
    06:00 +17°C° 0 mm 2 mps 637 mmHg 38%
    07:00 +20°C° 0 mm 2 mps 638 mmHg 34%
    08:00 +23°C° 0 mm 2 mps 639 mmHg 30%
    09:00 +26°C° 0 mm 2 mps 639 mmHg 26%
    10:00 +28°C° 0 mm 2 mps 640 mmHg 25%
    11:00 +29°C° 0 mm 2 mps 640 mmHg 24%
    12:00 +31°C° 0 mm 2 mps 640 mmHg 23%
    13:00 +31°C° 0 mm 3 mps 639 mmHg 24%
    14:00 +31°C° 0 mm 3 mps 639 mmHg 25%
    15:00 +33°C° 0 mm 4 mps 639 mmHg 26%
    16:00 +30°C° 0 mm 4 mps 638 mmHg 31%
    17:00 +28°C° 0 mm 4 mps 638 mmHg 35%
    18:00 +27°C° 0 mm 4 mps 637 mmHg 39%
    19:00 +25°C° 0 mm 4 mps 637 mmHg 42%
    20:00 +21°C° 0 mm 3 mps 636 mmHg 44%
    21:00 +19°C° 0 mm 3 mps 636 mmHg 47%
    22:00 +19°C° 0 mm 3 mps 636 mmHg 45%
    23:00 +18°C° 0 mm 3 mps 636 mmHg 44%

    22 August, Thursday

    Time Temperature Precipitation Wind Pressure Humidity
    00:00 +18°C° 0 mm 3 mps 636 mmHg 43%
    01:00 +17°C° 0 mm 2 mps 636 mmHg 42%
    02:00 +17°C° 0 mm 2 mps 636 mmHg 42%
    03:00 +17°C° 0 mm 2 mps 635 mmHg 41%
    04:00 +17°C° 0 mm 2 mps 635 mmHg 42%
    05:00 +17°C° 0 mm 2 mps 635 mmHg 42%
    06:00 +17°C° 0 mm 2 mps 635 mmHg 43%
    07:00 +19°C° 0 mm 2 mps 636 mmHg 38%
    08:00 +23°C° 0 mm 2 mps 637 mmHg 33%
    09:00 +26°C° 0 mm 2 mps 637 mmHg 28%
    10:00 +27°C° 0 mm 2 mps 637 mmHg 27%
    11:00 +29°C° 0 mm 3 mps 638 mmHg 26%
    12:00 +30°C° 0 mm 3 mps 638 mmHg 25%
    13:00 +31°C° 0 mm 3 mps 637 mmHg 26%
    14:00 +32°C° 0 mm 4 mps 637 mmHg 27%
    15:00 +32°C° 0 mm 4 mps 637 mmHg 28%
    16:00 +29°C° 0 mm 4 mps 636 mmHg 32%
    17:00 +28°C° 0 mm 4 mps 636 mmHg 37%
    18:00 +26°C° 0 mm 4 mps 635 mmHg 41%
    19:00 +23°C° 0 mm 4 mps 635 mmHg 42%
    20:00 +21°C° 0 mm 4 mps 635 mmHg 43%
    21:00 +19°C° 0 mm 3 mps 635 mmHg 44%
    22:00 +18°C° 0 mm 3 mps 635 mmHg 44%
    23:00 +18°C° 0 mm 3 mps 635 mmHg 43%

    23 August, Friday

    Time Temperature Precipitation Wind Pressure Humidity
    00:00 +18°C° 0 mm 3 mps 635 mmHg 42%
    01:00 +17°C° 0 mm 3 mps 635 mmHg 42%
    02:00 +17°C° 0 mm 2 mps 635 mmHg 42%
    03:00 +16°C° 0 mm 2 mps 634 mmHg 42%
    04:00 +16°C° 0 mm 2 mps 634 mmHg 43%
    05:00 +16°C° 0 mm 2 mps 634 mmHg 44%
    06:00 +16°C° 0 mm 2 mps 635 mmHg 45%
    07:00 +19°C° 0 mm 2 mps 635 mmHg 40%
    08:00 +21°C° 0 mm 2 mps 636 mmHg 36%
    09:00 +25°C° 0 mm 3 mps 637 mmHg 31%
    10:00 +27°C° 0 mm 3 mps 637 mmHg 30%
    11:00 +28°C° 0 mm 3 mps 637 mmHg 28%
    12:00 +30°C° 0 mm 4 mps 637 mmHg 27%
    13:00 +30°C° 0 mm 4 mps 637 mmHg 27%
    14:00 +30°C° 0 mm 4 mps 637 mmHg 28%
    15:00 +32°C° 0 mm 5 mps 636 mmHg 29%
    16:00 +29°C° 0 mm 5 mps 636 mmHg 33%
    17:00 +27°C° 0 mm 5 mps 635 mmHg 38%
    18:00 +25°C° 0 mm 4 mps 635 mmHg 42%
    19:00 +23°C° 0 mm 4 mps 635 mmHg 44%
    20:00 +21°C° 0 mm 4 mps 635 mmHg 46%
    21:00 +19°C° 0 mm 4 mps 635 mmHg 48%
    22:00 +18°C° 0 mm 3 mps 635 mmHg 48%
    23:00 +18°C° 0 mm 3 mps 635 mmHg 47%
    Show more